Location: Newark
(52.4480°N, 1.4938°W)
Time: 19:10:33
(UTC+00:00)

Envisat - Visible Passes

Search period start: 18 September 2020 00:00
Search period end: 28 September 2020 00:00
Orbit: 764 x 766 km, 98.1° (Epoch: 18 September)

Date Brightness Start Highest point End Pass type
(mag) Time Alt. Az. Time Alt. Az. Time Alt. Az.
20 Sep 6.1 04:55:46 10° NE 04:58:59 17° E 05:02:12 10° SE visible
21 Sep 6.5 19:00:06 10° WSW 19:02:11 12° W 19:04:18 10° WNW visible
23 Sep 6.3 04:44:57 10° NE 04:47:27 14° E 04:49:57 10° ESE visible
24 Sep 6.3 18:47:43 10° WSW 18:50:39 15° W 18:53:37 10° NW visible
25 Sep 6.0 05:09:22 10° NE 05:13:16 22° E 05:17:08 10° SE visible
26 Sep 6.6 04:34:37 10° ENE 04:35:54 11° E 04:37:12 10° E visible
27 Sep 6.1 18:35:37 10° SW 18:39:08 19° W 18:42:41 10° NW visible
